CAPE
0 0 0 0 0 0 0 0 0 0 0 0 0 0 0 0 0 0 0 0 0 0 0 0 8 17 10 6 1 0 0 0 0 0 0 0 0 0 0 0 0 1 1
0 0 0 0 0 0 0 0 0 0 0 0 0 0 0 0 0 0 0 0 0 0 0 0 0 3 17 24 22 17 7 1 0 0 0 0 0 0 0 0 1 3 4
0 0 0 0 0 0 0 0 0 0 0 0 0 0 0 0 0 0 0 0 0 0 0 0 0 0 0 0 11 30 35 65 72 23 0 0 0 29 30 0 0 3 8
0 0 0 0 0 0 0 0 0 0 0 0 0 0 0 0 0 0 0 0 0 0 0 0 0 0 0 0 0 0 19 29 38 50 51 63 34 46 82 107 89 71 51
0 0 0 0 0 0 0 0 0 0 0 0 0 0 0 0 0 0 0 0 0 0 0 0 0 0 0 0 0 0 0 0 4 33 46 48 61 80 98 138 163 171 148
0 0 0 0 0 0 0 0 0 0 0 0 0 0 0 0 0 0 0 0 0 0 0 0 0 0 0 0 0 0 0 0 0 0 13 35 44 46 38 63 98 113 162
0 0 0 0 0 0 0 0 0 0 0 0 0 0 0 0 0 0 0 0 0 0 0 0 0 0 0 0 0 0 0 0 0 0 0 0 20 45 41 66 52 123 157
0 0 0 0 0 0 0 0 0 0 0 0 0 1 0 0 0 0 0 0 0 0 0 0 0 0 0 0 0 0 0 0 0 0 0 0 9 30 38 46 59 42 169
0 0 0 0 0 0 0 0 0 0 1 0 0 0 2 5 0 0 0 0 0 0 0 0 0 0 0 0 0 0 0 0 0 0 0 14 34 30 29 25 41 75 96
0 0 0 0 0 0 0 0 0 1 3 5 1 0 0 2 16 17 1 0 0 0 0 0 0 0 0 0 0 0 0 0 0 0 0 0 31 33 25 38 34 72 75
0 0 0 0 0 0 0 0 0 0 21 16 24 29 29 3 1 4 3 2 0 0 0 0 0 0 0 0 0 0 0 0 0 0 0 1 47 26 30 13 43 82 141
0 0 0 0 0 0 0 0 0 0 0 0 0 3 1 6 25 25 24 30 16 2 0 0 0 0 0 0 0 0 0 0 0 0 6 22 69 45 50 29 111 142 199
0 0 0 0 0 0 0 0 0 0 0 0 0 0 0 0 0 1 14 0 0 0 39 25 21 0 0 0 0 0 0 0 0 2 7 43 66 57 93 103 119 171 306
0 0 0 0 0 0 0 0 0 0 0 0 0 0 0 0 0 0 6 18 1 3 2 3 8 82 57 0 0 0 0 0 0 0 6 31 24 23 51 96 142 115 260
0 0 0 0 0 0 0 0 0 0 0 0 0 0 0 0 0 0 2 23 23 14 4 9 24 20 32 53 4 0 1 2 0 0 0 2 14 18 5 9 85 148 206
0 0 0 0 0 0 0 0 0 0 0 0 0 0 0 0 0 0 1 9 8 13 8 2 6 5 12 28 28 19 0 0 0 1 1 0 5 5 0 8 7 61 133
0 0 0 0 0 0 0 0 0 0 0 0 0 0 0 0 0 0 0 0 0 5 7 1 2 3 8 14 13 31 5 0 0 0 2 9 14 2 1 0 5 22 99
0 0 0 0 0 0 0 0 0 0 0 0 0 0 0 0 0 0 0 0 0 0 17 11 0 1 6 13 13 20 22 45 10 0 9 4 0 3 5 0 0 7 6
0 0 0 0 0 0 0 0 0 0 0 0 0 0 5 0 0 0 0 5 0 0 0 1 12 1 1 8 27 40 30 27 32 16 0 0 0 0 0 6 15 16 11
0 0 0 0 0 0 0 0 0 0 0 0 0 1 0 0 0 0 3 0 0 0 1 1 3 7 8 6 19 17 18 28 13 2 0 0 0 0 1 1 12 5 7
0 0 0 0 0 0 0 0 0 0 0 0 0 0 0 0 0 0 4 0 0 0 4 1 4 8 5 7 15 17 14 10 8 10 3 0 0 1 1 1 1 1 0
0 0 0 0 0 0 0 0 0 0 0 0 0 0 0 0 0 0 0 0 0 3 2 6 7 8 6 9 7 14 9 8 0 3 10 0 0 0 0 2 1 0 1
0 0 0 0 0 0 0 0 0 0 0 0 0 0 0 0 0 1 0 4 1 1 1 3 11 10 10 8 7 6 2 3 5 3 3 3 0 0 0 0 1 1 1
0 0 0 0 0 0 0 0 0 0 0 0 0 0 0 0 3 7 9 4 0 0 0 0 11 21 21 11 19 14 18 5 3 2 0 1 0 0 0 0 1 1 3
0 0 0 0 0 0 0 0 0 0 0 0 0 0 1 1 5 11 15 13 1 0 0 15 10 11 16 5 6 4 6 4 0 2 0 0 0 0 2 1 1 3 4
0 0 0 0 0 0 0 0 1 2 6 6 9 3 0 0 6 17 16 10 5 11 15 4 1 1 5 2 5 3 2 2 2 2 0 0 0 0 0 0 0 5 3
CIN
0 0 0 0 0 0 0 0 0 0 0 0 0 0 0 0 0 0 0 0 0 0 0 0 -1 -1 -1 -1 0 0 0 0 0 0 0 0 0 0 0 0 0 0 0
0 0 0 0 0 0 0 0 0 0 0 0 0 0 0 0 0 0 0 0 0 0 0 0 0 -1 -1 -1 -1 -1 0 0 0 0 0 0 0 0 0 0 0 0 -1
0 0 0 0 0 0 0 0 0 0 0 0 0 0 0 0 0 0 0 0 0 0 0 0 0 0 0 0 -1 0 0 0 0 -1 0 0 0 -10 -14 0 0 0 0
0 0 0 0 0 0 0 0 0 0 0 0 0 0 0 0 0 0 0 0 0 0 0 0 0 0 0 0 0 0 0 0 0 -1 -2 0 -3 -1 0 0 0 0 -3
0 0 0 0 0 0 0 0 0 0 0 0 0 0 0 0 0 0 0 0 0 0 0 0 0 0 0 0 0 0 0 0 0 0 -1 -1 -18 -1 0 0 0 0 -1
0 0 0 0 0 0 0 0 0 0 0 0 0 0 0 0 0 0 0 0 0 0 0 0 0 0 0 0 0 0 0 0 0 0 -1 0 -1 -8 -2 -2 -2 -2 -1
0 0 0 0 0 0 0 0 0 0 0 0 0 0 0 0 0 0 0 0 0 0 0 0 0 0 0 0 0 0 0 0 0 0 0 0 0 0 -1 -5 -3 -2 -2
0 0 0 0 0 0 0 0 0 0 0 0 0 0 0 0 0 0 0 0 0 0 0 0 0 0 0 0 0 0 0 0 0 0 0 0 -35 0 0 -33 -16 -4 -1
0 0 0 0 0 0 0 0 0 0 -26 0 0 0 -9 -5 0 0 0 0 0 0 0 0 0 0 0 0 0 0 0 0 0 0 0 -115 -109 -73 -45 -17 -30 -7 -1
0 0 0 0 0 0 0 0 0 -13 -40 -31 -42 0 0 -4 -4 -1 -2 0 0 0 0 0 0 0 0 0 0 0 0 0 0 0 0 -44 -110 -85 -94 -45 -32 -8 -2
0 0 0 0 0 0 0 0 0 0 -4 -5 -2 -2 -1 -25 -3 -5 -3 -4 -3 0 0 0 0 0 0 0 0 0 0 0 0 0 -17 -18 -87 -78 -88 -2 -47 -3 -2
0 0 0 0 0 0 0 0 0 0 0 0 0 -3 -1 -1 0 -4 -5 -3 0 -2 0 0 0 0 0 0 0 0 0 0 0 -40 -203 -145 -85 -63 -61 -68 -21 -2 -4
0 0 0 0 0 0 0 0 0 0 0 0 0 0 0 0 0 -1 0 0 0 0 -2 -14 -22 0 0 0 0 0 0 0 0 -152 -184 -160 -117 -60 -40 -38 -23 -2 -3
0 0 0 0 0 0 0 0 0 0 0 0 0 0 0 0 0 0 0 0 0 0 -1 -2 -2 -5 -8 0 0 -141 0 0 0 0 -193 -143 -133 -102 -45 -22 -17 -7 -9
0 0 0 0 0 0 0 0 0 0 0 0 0 0 0 0 0 0 -1 -1 0 0 0 -1 -1 -3 -5 -7 -3 0 -123 -213 0 0 0 -130 -148 -139 -119 -88 -32 -12 -6
0 0 0 0 0 0 0 0 0 0 0 0 0 0 0 0 0 0 -1 -1 -1 0 0 0 0 -2 -3 -5 -10 -21 0 0 0 -81 -70 0 -123 -100 -39 -94 -93 -52 -18
0 0 0 0 0 0 0 0 0 0 0 0 0 0 0 0 0 0 0 0 0 0 -1 0 -1 -2 -3 -3 -4 -8 -16 0 0 0 -46 -116 -115 -97 -80 -49 -96 -77 -36
0 0 0 0 0 0 0 0 0 0 0 0 0 0 0 0 0 0 0 0 0 0 0 0 0 -1 -1 -2 -5 -5 -7 -9 -27 0 -55 -75 -7 -98 -69 0 -28 -82 -69
0 0 0 0 0 0 0 0 0 0 0 0 0 0 -3 0 0 0 0 -1 0 0 0 0 0 -2 -5 -1 -1 -2 -3 -10 -18 -11 -5 0 0 0 0 -26 -35 -37 -54
0 0 0 0 0 0 0 0 0 0 0 0 0 -2 0 0 0 0 -1 0 0 0 -1 0 0 0 -1 -1 -1 -1 -1 -3 -7 -30 -20 0 0 0 0 -5 -38 -22 -17
0 0 0 0 0 0 0 0 0 0 0 0 0 0 0 0 0 0 -2 0 0 0 0 0 0 0 0 0 -1 0 0 -3 -4 -3 -20 0 0 0 0 0 0 -23 -1
0 0 0 0 0 0 0 0 0 0 0 0 0 0 0 0 0 0 0 0 0 -1 0 0 0 0 0 0 -1 -1 0 0 0 -5 -19 0 0 0 0 0 0 0 -8
0 0 0 0 0 0 0 0 0 0 0 0 0 0 0 0 0 -2 -1 -2 -2 -2 -1 -1 0 0 0 0 0 0 0 0 0 0 -1 0 0 0 0 0 0 0 0
0 0 0 0 0 0 0 0 0 0 0 0 0 0 0 0 -2 -2 -3 -1 -1 0 0 0 0 0 -1 -1 0 0 0 0 0 0 0 0 0 0 0 0 0 0 0
0 0 0 0 0 0 0 0 0 0 0 0 0 0 -6 -3 -3 -3 -3 -2 -3 0 0 -1 0 0 0 0 0 0 0 0 0 0 0 0 0 0 0 0 0 0 0
0 0 0 0 0 0 0 0 -2 -4 -3 -2 -4 -5 -1 -2 -3 -2 -3 -1 -2 -3 0 -1 -2 0 0 0 0 0 0 0 0 0 0 0 0 0 0 0 0 -2 0
Wind_Speed
17 20 22 24 24 23 23 23 22 23 23 23 24 24 25 25 24 23 23 21 20 20 19 19 18 18 18 18 17 17 17 16 16 16 16 15 15 15 15 15 16 16 17
20 23 24 25 25 25 24 23 24 25 26 26 27 26 27 28 27 26 27 27 24 23 22 22 21 21 21 21 21 21 21 21 20 20 20 19 19 19 18 18 18 18 18
18 19 21 22 22 22 23 24 25 26 28 28 27 27 27 28 28 28 28 28 28 27 26 25 24 24 24 24 24 24 24 24 23 23 23 23 23 22 22 22 21 20 20
18 19 21 22 24 23 24 26 28 29 30 29 30 30 29 29 29 29 29 29 29 28 28 28 27 27 27 27 27 27 27 27 26 26 26 27 26 26 26 25 25 23 22
17 18 20 22 24 24 24 26 28 28 30 30 31 31 31 30 31 31 30 30 30 29 30 29 28 28 28 29 29 29 29 29 29 29 29 29 29 28 28 28 27 26 25
17 18 19 20 23 23 24 25 26 27 28 30 32 32 33 33 32 32 33 33 32 31 31 31 31 30 30 30 30 30 31 31 31 31 31 31 30 29 30 30 30 29 27
18 19 20 22 24 24 25 28 29 31 32 31 36 37 36 34 34 34 34 33 33 31 31 29 29 30 31 30 30 30 30 30 31 32 31 31 30 31 31 32 31 30 29
23 23 24 25 27 28 29 29 30 34 33 30 34 38 44 41 35 33 32 32 32 32 31 29 30 29 29 30 29 28 28 29 30 31 31 30 30 30 31 31 31 31 30
30 30 31 31 32 31 32 33 33 33 37 36 32 36 42 45 45 39 37 35 34 33 32 32 31 30 30 30 31 30 29 29 30 30 29 29 29 29 30 30 30 30 30
30 32 33 34 35 34 34 34 34 34 35 39 37 33 34 40 47 52 40 37 34 34 35 34 33 32 31 32 32 31 31 31 31 30 28 27 28 28 29 29 28 28 29
33 35 36 37 37 37 37 37 38 37 36 37 39 40 39 38 39 44 51 45 40 37 36 36 35 35 34 34 34 33 30 30 30 30 30 29 28 27 29 29 28 27 27
35 37 39 39 39 40 41 41 41 42 41 41 42 42 43 45 46 46 48 48 48 43 42 39 38 36 38 37 36 34 33 32 30 29 29 31 31 29 31 30 30 28 28
38 40 41 42 42 42 43 43 44 44 44 44 44 44 43 44 44 46 49 53 54 52 46 43 41 42 40 39 39 39 38 36 34 37 37 37 35 32 43 34 29 31 30
41 42 44 44 45 45 45 46 46 46 45 46 47 46 46 45 45 45 47 52 58 57 52 50 45 45 44 43 43 41 43 43 41 39 37 37 36 34 33 42 33 32 31
43 45 45 46 46 46 46 47 47 47 47 47 47 46 46 47 45 44 45 45 50 59 60 53 50 46 45 45 44 45 44 43 42 40 39 39 38 37 38 39 39 35 33
46 46 47 47 47 47 47 48 48 48 49 47 46 49 48 47 46 45 45 46 46 50 59 53 51 49 49 49 49 47 46 45 45 44 41 41 40 42 40 39 39 39 36
47 47 48 48 49 49 49 49 50 49 49 50 50 50 49 47 46 46 46 47 48 49 55 60 52 50 50 49 50 47 46 46 48 47 46 47 44 40 36 39 37 42 39
47 48 48 48 49 49 49 48 50 48 50 51 50 50 47 44 46 45 46 48 49 48 50 55 57 53 49 48 47 47 47 44 44 47 47 46 45 45 43 43 45 38 38
47 47 48 49 49 49 48 48 47 49 50 49 48 47 44 45 46 47 48 47 48 50 50 52 55 52 53 50 50 47 47 44 42 42 47 48 50 51 52 54 55 42 43
47 48 47 48 47 48 48 47 49 49 49 47 45 42 43 44 47 49 48 48 51 52 51 52 53 54 52 52 51 51 51 44 43 43 43 45 48 51 52 52 53 44 37
46 47 48 48 48 49 47 51 50 49 47 48 48 46 46 47 49 47 48 53 53 52 52 53 54 53 55 54 52 52 54 52 52 43 46 46 48 46 47 46 47 45 37
47 47 48 49 50 49 51 52 51 50 50 51 53 53 50 53 52 52 53 54 53 54 55 53 54 54 56 53 53 52 54 54 59 47 43 45 43 48 46 43 41 38 34
46 48 48 49 51 52 53 54 53 52 53 53 53 55 56 53 55 54 57 56 54 53 51 53 54 53 56 52 53 54 53 52 54 54 49 54 44 49 46 42 45 27 27
49 50 51 51 53 53 55 55 56 54 54 54 53 53 53 54 52 55 57 57 55 54 52 49 48 50 53 55 52 51 56 55 54 52 42 55 45 48 40 36 34 21 19
50 50 50 52 53 55 55 56 57 56 55 54 52 50 51 52 53 56 57 57 57 54 49 47 51 53 52 55 53 50 49 48 53 50 38 42 40 40 37 33 28 16 17
49 49 51 50 52 53 53 56 55 53 53 52 50 49 50 51 54 55 56 55 52 48 47 51 50 50 48 48 48 42 44 48 49 52 36 33 35 33 37 33 20 15 15
Wind_Direction
321 320 320 321 321 322 321 321 322 323 321 320 316 311 309 307 304 304 304 299 295 288 286 284 278 278 276 275 275 274 274 275 277 279 279 280 282 285 287 289 292 293 295
317 317 316 316 317 318 319 319 318 318 317 316 315 312 309 307 305 302 301 301 296 292 286 285 279 279 278 275 273 273 274 275 275 277 277 277 278 280 280 283 285 286 289
314 316 317 317 317 317 316 315 314 314 313 312 310 310 309 306 304 302 300 299 299 294 289 286 282 278 278 276 275 276 275 274 272 272 272 274 276 275 275 276 279 280 280
312 314 316 317 317 316 315 314 313 311 309 308 307 307 305 305 302 300 299 298 297 296 294 289 282 278 276 275 274 276 277 276 273 271 270 272 272 272 272 272 273 272 272
317 316 317 317 317 316 315 314 314 312 311 310 308 307 305 303 302 301 298 296 294 293 294 292 286 282 277 275 275 274 275 274 275 275 273 271 269 268 268 268 268 266 265
318 317 318 318 319 317 316 316 313 314 311 311 310 308 307 306 303 300 299 298 296 293 291 290 291 289 284 281 278 275 274 273 273 275 275 273 267 265 267 265 266 262 262
320 318 318 319 319 316 316 317 316 315 314 314 312 311 308 306 303 301 301 299 297 296 295 294 294 292 292 288 284 281 278 275 274 275 273 269 265 265 270 268 264 260 257
327 325 322 321 321 319 318 317 316 315 313 315 312 313 312 311 309 306 303 300 299 299 297 294 294 293 295 296 293 289 284 281 281 278 273 269 267 264 270 267 261 258 257
337 335 331 328 326 323 320 319 317 313 312 312 308 308 311 309 312 310 306 302 299 297 296 295 291 291 292 294 295 293 289 286 286 285 278 272 271 265 266 262 256 256 255
346 343 341 338 335 332 327 324 322 317 314 312 313 308 303 305 308 308 308 307 305 299 297 295 291 289 289 291 291 291 291 290 286 284 279 277 272 266 266 263 258 258 253
343 342 340 338 337 336 334 331 328 323 319 315 313 312 309 306 304 305 306 307 305 303 299 298 294 292 290 289 290 288 286 287 287 282 277 276 277 268 274 269 262 261 256
342 340 338 337 335 333 331 329 327 324 321 318 316 314 311 310 308 308 306 305 305 303 302 298 298 293 294 292 290 287 285 284 285 286 283 277 276 269 277 274 269 267 262
338 337 336 334 332 330 328 327 325 323 321 318 316 314 312 310 309 307 306 304 303 303 302 300 297 295 295 293 291 290 286 280 281 286 289 285 280 273 279 277 264 272 269
335 335 333 332 331 329 328 326 324 322 320 318 316 314 312 311 310 307 305 304 303 302 301 300 301 299 297 295 291 290 291 287 284 283 282 283 282 278 274 277 271 269 266
334 333 333 330 330 329 328 326 324 322 320 319 317 316 315 314 312 311 309 307 305 302 301 303 302 303 301 300 297 294 292 290 287 284 283 283 283 280 278 276 272 268 266
334 333 332 331 330 330 328 327 324 322 320 319 319 317 315 314 313 312 311 310 308 305 301 303 303 303 302 300 298 295 293 291 289 286 285 284 280 283 279 275 272 269 267
334 334 333 332 331 329 329 327 325 323 321 320 319 318 316 316 314 314 313 311 309 308 303 301 304 304 303 302 299 297 295 293 291 289 286 284 283 281 277 275 270 271 268
336 335 334 333 332 331 330 328 326 325 323 321 320 319 318 319 317 317 316 312 310 310 308 305 303 304 303 303 302 300 298 296 293 291 289 288 285 283 281 278 275 269 265
336 335 335 334 333 333 331 330 328 325 325 324 323 321 321 321 319 319 317 315 314 311 309 306 303 304 303 304 303 301 299 299 295 294 291 289 286 285 281 275 276 271 268
336 336 336 335 335 334 332 331 329 328 326 326 326 325 324 322 320 318 317 316 315 313 310 308 306 304 303 302 301 301 298 298 299 297 294 292 289 286 281 277 276 271 261
338 337 336 336 335 333 332 330 329 328 327 325 324 323 321 320 319 318 316 315 314 312 310 308 306 305 302 301 300 300 297 296 294 295 293 292 290 288 283 285 278 276 259
338 337 336 334 332 331 329 328 328 327 326 323 321 320 320 319 317 315 313 312 311 310 307 306 304 303 301 302 300 299 297 296 291 296 294 291 291 286 287 285 284 282 261
337 336 335 333 331 329 327 327 327 325 324 323 322 320 318 319 318 315 313 311 309 308 306 304 301 301 300 301 300 298 297 295 292 291 293 288 290 285 285 287 280 275 265
336 334 333 332 329 328 328 327 325 325 323 322 322 321 320 320 320 318 315 312 311 309 306 304 302 303 300 299 299 297 295 294 291 290 293 285 290 286 287 284 283 269 252
335 333 332 331 329 328 328 327 326 325 323 322 322 323 322 321 321 319 317 314 311 309 308 305 303 302 300 298 297 298 296 295 291 290 294 291 291 289 283 286 278 267 247
334 333 331 331 330 329 329 328 328 327 325 325 325 325 324 323 321 320 319 316 314 314 311 306 304 304 304 301 297 301 300 295 293 288 291 288 290 284 279 278 283 268 258